Total_Precipitation_Accumulation
0.06 0.15 0.21 0.23 0.21 0.17 0.13 0.12 0.24 0.27 0.35 0.45 0.58 0.54 0.52 0.50 0.42 0.42 0.50 0.49 0.47 0.46 0.50 0.52 0.57 0.52 0.49 0.52 0.55 0.71 1.09 1.31 1.29 1.26 1.27 1.25 1.25 1.33 1.40 1.46 1.50 1.71 1.90 2.01
0.10 0.14 0.15 0.16 0.19 0.17 0.11 0.10 0.10 0.15 0.29 0.34 0.50 0.59 0.61 0.59 0.54 0.51 0.51 0.47 0.44 0.39 0.49 0.57 0.61 0.60 0.56 0.55 0.60 0.72 0.99 1.21 1.21 1.20 1.18 1.12 1.17 1.27 1.43 1.53 1.68 1.86 1.89 1.88
0.15 0.19 0.17 0.24 0.20 0.17 0.15 0.14 0.14 0.22 0.35 0.33 0.39 0.51 0.59 0.62 0.58 0.53 0.55 0.45 0.40 0.44 0.57 0.77 0.69 0.65 0.69 0.64 0.65 0.78 0.98 1.16 1.25 1.22 1.24 1.23 1.20 1.37 1.56 1.71 1.85 1.97 1.95 1.90
0.21 0.25 0.36 0.28 0.21 0.22 0.24 0.27 0.28 0.31 0.35 0.37 0.48 0.55 0.65 0.82 0.69 0.54 0.56 0.56 0.58 0.56 0.61 0.68 0.64 0.67 0.72 0.72 0.72 0.83 1.03 1.25 1.34 1.28 1.34 1.42 1.43 1.51 1.72 1.93 2.07 2.09 2.04 1.97
0.31 0.34 0.41 0.37 0.29 0.34 0.37 0.42 0.44 0.47 0.41 0.46 0.51 0.61 0.72 0.69 0.67 0.71 0.69 0.67 0.70 0.74 0.72 0.77 0.80 0.79 0.79 0.85 0.90 0.99 1.09 1.26 1.37 1.43 1.51 1.54 1.58 1.75 1.96 2.15 2.19 2.15 2.19 2.11
0.44 0.51 0.58 0.57 0.42 0.36 0.43 0.72 0.58 0.61 0.60 0.54 0.56 0.80 0.87 0.73 0.67 0.67 0.77 0.83 0.78 0.82 0.85 0.88 0.92 0.97 0.98 1.04 1.17 1.32 1.41 1.48 1.66 1.84 1.99 2.07 2.12 2.19 2.24 2.31 2.23 2.20 2.18 2.19
0.64 0.75 0.69 0.53 0.46 0.42 0.79 1.11 0.83 0.81 0.79 0.69 0.80 0.90 0.88 0.75 0.70 0.64 0.66 0.75 0.79 0.79 0.88 0.96 0.97 1.08 1.24 1.32 1.42 1.56 1.70 1.78 1.97 2.27 2.44 2.43 2.44 2.39 2.31 2.31 2.33 2.30 2.22 2.20
0.86 1.08 1.13 0.62 0.58 0.88 1.12 0.93 0.95 1.00 0.98 0.90 0.87 0.93 0.93 0.89 0.72 0.65 0.65 0.70 0.78 0.82 0.86 1.01 1.23 1.41 1.64 1.71 1.66 1.76 1.93 2.08 2.27 2.51 2.45 2.37 2.55 2.49 2.45 2.53 2.52 2.38 2.28 2.20
1.12 1.31 1.10 0.76 0.88 1.06 1.05 0.99 1.00 1.01 0.97 0.87 0.81 0.94 0.89 0.81 0.77 0.65 0.62 0.68 0.76 0.83 0.92 1.05 1.29 1.64 1.87 1.91 1.97 2.02 2.11 2.21 2.27 2.37 2.55 2.71 2.78 2.68 2.60 2.60 2.53 2.34 2.23 2.10
1.33 1.41 1.20 1.03 1.02 0.99 1.02 1.02 0.97 0.89 0.84 0.85 0.80 0.79 0.78 0.72 0.69 0.66 0.65 0.73 0.76 0.84 1.01 1.23 1.43 1.70 1.84 1.86 1.90 1.97 1.99 1.98 2.05 2.20 2.35 2.44 2.68 2.75 2.66 2.54 2.47 2.41 2.31 2.15
1.66 1.73 1.58 1.43 1.22 1.08 1.07 1.02 1.02 0.98 0.91 0.87 0.80 0.75 0.70 0.68 0.66 0.65 0.65 0.75 0.83 0.91 1.02 1.15 1.34 1.52 1.59 1.75 1.82 1.93 1.94 1.90 1.89 1.91 2.02 2.12 2.23 2.34 2.32 2.30 2.12 2.02 1.94 1.88
1.87 1.64 1.56 1.72 1.48 1.28 1.21 1.18 1.22 1.25 1.21 1.05 0.92 0.85 0.80 0.75 0.67 0.63 0.61 0.72 0.83 0.94 1.05 1.14 1.29 1.49 1.57 1.69 1.77 1.82 1.80 1.74 1.76 1.77 1.85 1.89 1.90 1.84 1.68 1.61 1.47 1.32 1.27 1.22
1.52 1.46 1.43 1.56 1.49 1.45 1.49 1.53 1.54 1.46 1.29 1.04 0.90 0.86 0.80 0.71 0.66 0.64 0.68 0.79 0.94 1.00 1.09 1.20 1.30 1.44 1.60 1.74 1.83 1.90 1.81 1.68 1.58 1.53 1.59 1.61 1.66 1.77 1.82 1.60 1.39 1.21 1.07 0.94
1.42 1.54 1.73 1.76 1.72 1.60 1.61 1.70 1.65 1.42 1.29 1.15 0.99 0.90 0.82 0.71 0.63 0.59 0.62 0.74 0.86 0.93 0.99 1.09 1.25 1.34 1.49 1.64 1.70 1.75 1.74 1.66 1.55 1.50 1.53 1.56 1.61 1.69 1.81 1.80 1.53 1.20 1.06 0.94
1.51 1.51 1.66 1.71 1.69 1.68 1.64 1.66 1.69 1.58 1.38 1.32 1.23 1.08 0.95 0.89 0.84 0.77 0.75 0.79 0.91 0.98 1.02 1.09 1.21 1.28 1.41 1.60 1.64 1.60 1.56 1.51 1.44 1.47 1.50 1.49 1.55 1.59 1.60 1.63 1.53 1.35 1.14 0.93
1.75 1.59 1.60 1.61 1.60 1.57 1.53 1.49 1.47 1.45 1.36 1.26 1.20 1.12 0.97 0.91 0.94 0.90 0.90 1.00 1.19 1.22 1.17 1.17 1.21 1.27 1.44 1.63 1.65 1.58 1.46 1.33 1.23 1.27 1.31 1.31 1.35 1.39 1.38 1.42 1.38 1.29 1.15 0.89
1.71 1.69 1.61 1.49 1.44 1.42 1.33 1.25 1.24 1.22 1.31 1.30 1.13 0.99 0.88 0.79 0.85 0.96 1.07 1.13 1.18 1.15 1.13 1.17 1.13 1.12 1.29 1.50 1.62 1.59 1.41 1.18 0.96 0.90 0.97 1.06 1.16 1.23 1.23 1.23 1.23 1.18 1.01 0.75
1.38 1.40 1.40 1.33 1.30 1.21 1.16 1.07 1.03 1.01 1.07 1.11 1.00 0.91 0.88 0.86 0.96 1.11 1.28 1.30 1.22 1.11 1.07 1.05 0.99 1.00 1.16 1.24 1.33 1.39 1.30 1.17 1.00 0.90 0.91 0.97 1.04 1.14 1.16 1.09 1.06 1.03 0.92 0.72
1.15 1.06 1.12 1.13 1.08 0.98 0.93 0.89 0.89 0.89 0.90 0.98 0.94 0.89 0.95 1.03 1.15 1.25 1.31 1.46 1.50 1.31 1.11 0.98 0.94 0.93 1.04 1.06 1.09 1.21 1.22 1.15 1.04 0.95 0.95 0.95 0.99 1.08 1.06 0.99 0.94 0.90 0.83 0.73
1.14 1.02 1.05 1.03 0.97 0.89 0.82 0.78 0.79 0.79 0.85 0.91 0.92 0.93 1.07 1.19 1.33 1.45 1.48 1.52 1.54 1.43 1.17 0.96 0.85 0.84 0.89 0.94 1.01 1.03 1.08 1.04 0.92 0.87 0.87 0.91 0.90 0.92 0.90 0.86 0.81 0.76 0.72 0.70
1.14 1.12 1.09 1.10 1.04 0.88 0.79 0.77 0.78 0.81 0.87 0.94 1.01 1.04 1.19 1.32 1.44 1.58 1.73 1.70 1.46 1.31 1.13 0.96 0.82 0.79 0.78 0.85 0.91 0.93 0.99 1.01 0.93 0.86 0.84 0.85 0.84 0.82 0.78 0.77 0.73 0.67 0.64 0.62
1.01 1.05 1.01 0.98 0.93 0.87 0.80 0.78 0.80 0.86 0.96 1.05 1.08 1.11 1.23 1.33 1.44 1.57 1.60 1.70 1.51 1.36 1.07 0.87 0.76 0.72 0.71 0.76 0.77 0.85 0.87 0.90 0.86 0.80 0.76 0.76 0.76 0.81 0.81 0.74 0.68 0.62 0.61 0.63
0.92 0.94 0.93 0.91 0.89 0.88 0.81 0.78 0.82 0.90 1.03 1.14 1.22 1.25 1.32 1.33 1.42 1.76 1.82 1.59 1.44 1.31 0.97 0.80 0.77 0.70 0.67 0.65 0.70 0.77 0.78 0.80 0.80 0.72 0.66 0.66 0.69 0.77 0.82 0.79 0.74 0.65 0.62 0.61
0.94 0.87 0.87 0.84 0.82 0.86 0.84 0.80 0.84 0.94 1.00 1.07 1.10 1.15 1.26 1.28 1.26 1.38 1.62 1.71 1.54 1.32 1.00 0.87 0.79 0.67 0.60 0.56 0.69 0.77 0.78 0.77 0.76 0.65 0.56 0.56 0.61 0.72 0.78 0.78 0.75 0.69 0.65 0.63
0.97 0.88 0.79 0.79 0.85 0.92 0.93 0.95 1.03 1.07 1.06 1.05 0.96 0.95 1.06 1.17 1.31 1.30 1.31 1.38 1.43 1.24 1.04 0.94 0.84 0.76 0.60 0.56 0.66 0.75 0.78 0.79 0.72 0.63 0.58 0.63 0.69 0.74 0.73 0.70 0.67 0.63 0.64 0.65
0.98 0.89 0.86 0.80 0.80 0.88 0.98 1.12 1.29 1.31 1.27 1.27 1.11 0.92 0.91 0.95 1.00 1.06 1.12 1.15 1.17 1.15 1.04 0.98 0.88 0.81 0.73 0.70 0.73 0.80 0.84 0.87 0.77 0.69 0.70 0.77 0.77 0.74 0.72 0.67 0.61 0.60 0.58 0.57
0.87 0.86 0.85 0.82 0.85 0.89 1.00 1.13 1.34 1.40 1.36 1.38 1.23 0.99 0.86 0.86 0.85 0.89 0.96 1.03 1.04 1.04 1.00 0.94 0.87 0.80 0.75 0.74 0.76 0.79 0.83 0.86 0.81 0.78 0.75 0.74 0.75 0.75 0.73 0.68 0.65 0.63 0.61 0.58